TimeCST,TemperatureF,Dew PointF,Humidity,Sea Level PressureIn,VisibilityMPH,Wind Direction,Wind SpeedMPH,Gust SpeedMPH,PrecipitationIn,Events,Conditions,WindDirDegrees,DateUTC
12:29 AM,1.9,-0.9,88,30.37,2.5,ESE,9.2,-,0.00,Snow,Light Snow,120,2013-12-08 06:29:00
12:42 AM,3.0,-0.9,84,30.36,3.0,SE,9.2,-,0.01,Snow,Light Snow,130,2013-12-08 06:42:00
12:56 AM,3.0,-0.9,84,30.47,2.5,ESE,6.9,-,0.01,Snow,Light Snow,120,2013-12-08 06:56:00
1:06 AM,3.0,-0.9,84,30.34,4.0,SE,9.2,-,0.00,Snow,Light Snow,130,2013-12-08 07:06:00
1:12 AM,3.0,-0.9,84,30.34,2.5,ESE,8.1,-,0.00,Snow,Light Snow,120,2013-12-08 07:12:00
1:22 AM,3.9,-0.9,80,30.33,1.5,ESE,10.4,-,0.00,Snow,Light Snow,120,2013-12-08 07:22:00
1:35 AM,3.9,-0.0,84,30.32,2.0,SE,8.1,-,0.01,Snow,Light Snow,130,2013-12-08 07:35:00
1:56 AM,3.9,-0.0,84,30.42,1.8,ESE,9.2,-,0.01,Snow,Light Snow,120,2013-12-08 07:56:00
2:31 AM,5.0,1.0,84,30.29,2.0,ESE,9.2,-,0.01,Snow,Light Snow,120,2013-12-08 08:31:00
2:56 AM,5.0,1.0,84,30.40,2.0,ESE,8.1,-,0.02,Snow,Light Snow,120,2013-12-08 08:56:00
3:13 AM,5.0,1.9,87,30.27,1.8,SE,9.2,-,0.00,Snow,Light Snow,130,2013-12-08 09:13:00
3:20 AM,5.0,1.9,87,30.27,2.5,SE,8.1,-,0.00,Snow,Light Snow,130,2013-12-08 09:20:00
3:31 AM,6.1,1.9,83,30.26,3.0,ESE,9.2,-,0.00,Snow,Light Snow,110,2013-12-08 09:31:00
3:56 AM,6.1,1.9,83,30.36,4.0,ESE,6.9,-,0.01,Snow,Light Snow,120,2013-12-08 09:56:00
4:25 AM,7.0,3.0,84,30.23,2.0,SE,10.4,-,0.00,Snow,Light Snow,130,2013-12-08 10:25:00
4:32 AM,7.0,3.0,84,30.22,1.8,SE,10.4,-,0.00,Snow,Light Snow,130,2013-12-08 10:32:00
4:49 AM,7.0,3.0,84,30.21,3.0,SE,8.1,-,0.00,Snow,Light Snow,130,2013-12-08 10:49:00
4:54 AM,6.8,3.2,85,30.21,2.0,SE,5.8,-,0.00,Snow,Light Snow,130,2013-12-08 10:54:00
4:56 AM,7.0,3.0,84,30.33,2.0,SE,6.9,-,0.01,Snow,Light Snow,140,2013-12-08 10:56:00
5:56 AM,7.0,3.0,84,30.31,2.5,SE,9.2,-,0.00,Snow,Light Snow,130,2013-12-08 11:56:00
6:30 AM,7.0,3.0,84,30.18,2.0,ESE,9.2,-,0.01,Snow,Light Snow,120,2013-12-08 12:30:00
6:34 AM,7.0,3.0,84,30.18,1.8,SE,8.1,-,0.01,Snow,Light Snow,130,2013-12-08 12:34:00
6:48 AM,7.0,3.0,84,30.17,1.8,SE,8.1,-,0.01,Snow,Light Snow,130,2013-12-08 12:48:00
6:56 AM,7.0,3.0,84,30.29,1.8,ESE,6.9,-,0.02,Snow,Light Snow,120,2013-12-08 12:56:00
7:06 AM,7.0,3.0,84,30.18,2.5,SE,9.2,-,0.00,Snow,Light Snow,130,2013-12-08 13:06:00
7:56 AM,7.0,3.9,87,30.27,1.2,SE,5.8,-,0.01,Snow,Light Snow,130,2013-12-08 13:56:00
8:15 AM,7.0,3.9,87,30.15,2.0,SE,8.1,-,0.00,Snow,Light Snow,130,2013-12-08 14:15:00
8:19 AM,7.0,3.9,87,30.15,2.0,ESE,8.1,-,0.00,Snow,Light Snow,120,2013-12-08 14:19:00
8:38 AM,8.1,3.9,83,30.15,1.2,SE,8.1,-,0.00,Snow,Light Snow,130,2013-12-08 14:38:00
8:56 AM,8.1,3.9,83,30.26,2.0,SE,6.9,-,0.01,Snow,Light Snow,140,2013-12-08 14:56:00
9:26 AM,8.1,3.9,83,30.14,3.0,SE,9.2,-,0.00,Snow,Light Snow,130,2013-12-08 15:26:00
9:43 AM,9.0,3.9,80,30.14,4.0,SE,6.9,-,0.00,Snow,Light Snow,140,2013-12-08 15:43:00
9:56 AM,9.0,3.9,80,30.25,4.0,SSE,9.2,-,0.00,Snow,Light Snow,150,2013-12-08 15:56:00
10:56 AM,10.0,5.0,80,30.23,9.0,SSE,10.4,-,0.01,Snow,Light Snow,160,2013-12-08 16:56:00
11:48 AM,10.9,5.0,77,30.09,4.0,SSE,8.1,-,0.00,Snow,Light Snow,150,2013-12-08 17:48:00
11:56 AM,10.9,5.0,77,30.19,4.0,SSE,9.2,-,0.00,Snow,Light Snow,150,2013-12-08 17:56:00
12:35 PM,10.9,6.1,81,30.06,1.5,South,8.1,-,0.00,Snow,Light Snow,170,2013-12-08 18:35:00
12:41 PM,10.9,6.1,81,30.06,2.0,SSE,8.1,-,0.00,Snow,Light Snow,160,2013-12-08 18:41:00
12:47 PM,10.9,6.1,81,30.05,4.0,SSE,6.9,-,0.00,Snow,Light Snow,160,2013-12-08 18:47:00
12:56 PM,10.9,6.1,81,30.15,4.0,South,9.2,-,0.00,Snow,Light Snow,170,2013-12-08 18:56:00
1:11 PM,12.0,6.1,77,30.05,6.0,South,5.8,-,0.01,Snow,Light Snow,180,2013-12-08 19:11:00
1:56 PM,12.0,6.1,77,30.12,6.0,South,5.8,-,0.01,Snow,Light Snow,190,2013-12-08 19:56:00
2:56 PM,10.9,6.1,81,30.12,5.0,SSW,4.6,-,0.00,Snow,Light Snow,200,2013-12-08 20:56:00
3:56 PM,10.9,5.0,77,30.12,6.0,SW,4.6,-,0.00,Snow,Light Snow,220,2013-12-08 21:56:00
4:56 PM,10.0,6.1,84,30.12,7.0,Calm,Calm,-,0.00,Snow,Light Snow,0,2013-12-08 22:56:00
5:56 PM,6.1,3.0,87,30.13,10.0,Calm,Calm,-,0.00,,Scattered Clouds,0,2013-12-08 23:56:00
6:56 PM,3.0,-0.0,87,30.15,10.0,West,3.5,-,N/A,,Mostly Cloudy,260,2013-12-09 00:56:00
7:56 PM,-2.0,-4.0,91,30.15,9.0,Calm,Calm,-,N/A,,Scattered Clouds,0,2013-12-09 01:56:00
8:56 PM,-2.9,-7.1,82,30.17,10.0,Calm,Calm,-,N/A,,Clear,0,2013-12-09 02:56:00
9:56 PM,-0.9,-4.0,87,30.17,10.0,West,4.6,-,N/A,,Clear,270,2013-12-09 03:56:00
10:56 PM,-0.9,-4.0,87,30.17,10.0,West,9.2,-,N/A,,Clear,270,2013-12-09 04:56:00
11:25 PM,-0.9,-4.0,87,30.06,9.0,West,9.2,-,N/A,,Partly Cloudy,280,2013-12-09 05:25:00
11:56 PM,-2.0,-6.0,83,30.18,10.0,West,10.4,-,N/A,,Partly Cloudy,270,2013-12-09 05:56:00